[[{"header":{"parameterUnit":"m.s-1","parameterCategory":1,"la1":30.2991,"la2":30.254,"lo1":-89.0895,"lo2":-89.0444,"dy":0.0017,"dx":0.0017,"nx":28,"ny":28,"refTime":"2023-11-09T09:00:00:Z","depth":0,"parameterNumber":2,"parameterNumberName":"U-component_of_WINDS"},"data":[0,0,0,0,0,0,0,0,0,0,0,0,0,0,0,0,0,0,0,0,0,0,0,0,0,0,0,0,0,0,0,0,0,0,0,0,0,0,0,0,0,0,0,0,0,0,0,0,0,0,0,0,0,0,0,0,0,0,-1.4968,-1.4968,0,-1.4931,-1.4931,-1.493,-1.4937,-1.4938,-1.4939,-1.4939,-1.4898,-1.4896,-1.4895,0,0,0,0,0,0,0,0,0,0,0,0,0,-1.504,-1.5038,-1.4968,-1.4968,-1.4967,-1.4931,-1.4931,-1.493,-1.4937,-1.4938,-1.4939,-1.494,-1.4899,-1.4896,-1.4894,0,0,0,0,0,0,0,0,0,0,0,0,0,-1.5006,-1.5038,-1.4968,-1.4967,-1.4966,-1.4932,-1.4931,-1.493,-1.4937,-1.4938,-1.4939,-1.494,-1.4899,-1.4897,-1.4894,-1.4858,0,0,-1.4886,-1.4885,0,0,0,0,0,0,0,0,-1.5008,-1.5004,-1.4967,-1.4967,-1.4966,-1.494,-1.4941,-1.4906,-1.4937,-1.4948,-1.4939,-1.4941,-1.4911,-1.4907,-1.4898,-1.4856,-1.4854,-1.4886,-1.4884,-1.4883,-1.4883,0,0,0,0,0,0,0,-1.5011,-1.5005,-1.4954,-1.4967,-1.4966,-1.4966,-1.4962,-1.4934,-1.4924,-1.4947,-1.4947,-1.4943,-1.4911,-1.4901,-1.4897,-1.4854,-1.4886,-1.4884,-1.4882,-1.4881,-1.4776,-1.4775,0,0,0,0,0,0,-1.5014,-1.5007,-1.4955,-1.4952,-1.499,-1.4964,-1.496,-1.4947,-1.4924,-1.4922,-1.4942,-1.4944,-1.4905,-1.49,-1.4896,-1.4849,-1.4883,-1.4881,-1.4879,-1.4777,-1.4775,-1.4774,0,0,0,0,0,0,-1.5016,-1.5009,-1.4956,-1.498,-1.4973,-1.4962,-1.4947,-1.4946,-1.4936,-1.4921,-1.4919,-1.4934,-1.4905,-1.4899,-1.4867,-1.4848,-1.488,-1.4877,-1.4778,-1.4777,-1.4775,-1.4756,0,0,0,0,0,0,-1.5018,-1.501,-1.4997,-1.498,-1.4972,-1.4929,-1.4946,-1.4945,-1.4932,-1.4933,-1.4913,-1.491,-1.4906,-1.487,-1.4864,-1.4845,-1.4875,-1.478,-1.4778,-1.4775,-1.4759,-1.4754,-1.475,0,0,0,0,0,-1.502,-1.4994,-1.4997,-1.499,-1.4956,-1.4928,-1.4924,-1.492,-1.4931,-1.4916,-1.4906,-1.4911,-1.4851,-1.4867,-1.486,-1.4839,-1.4781,-1.4778,-1.4776,-1.4761,-1.4755,-1.4751,0,0,0,0,0,0,-1.5009,-1.4992,-1.4995,-1.4962,-1.4947,-1.4929,-1.4912,-1.4915,-1.4895,-1.4897,-1.4892,-1.4887,-1.4853,-1.4843,-1.4861,-1.4801,-1.4817,-1.4813,-1.4808,-1.4803,-1.4799,-1.4801,-1.4873,0,0,0,0,0,-1.5003,-1.4983,-1.4968,-1.4941,-1.4933,-1.4924,-1.4912,-1.491,-1.4893,-1.4886,-1.4874,-1.4856,-1.4833,-1.4818,-1.4797,-1.4758,-1.4751,-1.474,-1.4736,-1.4733,-1.4728,-1.4703,-1.4696,-1.4765,-1.4765,-1.4765,0,0,-1.499,-1.4978,-1.4965,-1.4938,-1.4926,-1.4903,-1.4918,-1.4895,-1.4877,-1.4882,-1.485,-1.484,-1.482,-1.4783,-1.4766,-1.4774,-1.4708,-1.4729,-1.4727,-1.4724,-1.4699,-1.4693,-1.4687,-1.4763,-1.4763,-1.4764,0,0,-1.4953,-1.4944,-1.4918,-1.4906,-1.4887,-1.4881,-1.4875,-1.4857,-1.485,-1.4818,-1.4821,-1.4799,-1.4761,-1.4745,-1.4732,-1.4687,-1.4689,-1.468,-1.4658,-1.4633,-1.4628,-1.4623,-1.4603,-1.4596,-1.4676,-1.4676,-1.4676,0,-1.4939,-1.4906,-1.4905,-1.4879,-1.4866,-1.4871,-1.4843,-1.4831,-1.4805,-1.4795,-1.4804,-1.4754,-1.4741,-1.4699,-1.4687,-1.4678,-1.4668,-1.4682,-1.4629,-1.4624,-1.4619,-1.46,-1.4593,-1.4675,-1.4675,-1.4675,-1.4676,0,-1.4887,-1.4865,-1.4846,-1.4821,-1.4806,-1.478,-1.4772,-1.4756,-1.4756,-1.4748,-1.4712,-1.4697,-1.4671,-1.4661,-1.4661,-1.4617,-1.4622,-1.4631,-1.4646,-1.4612,-1.4593,-1.4586,-1.4673,-1.4674,-1.4674,-1.4675,0,0,-1.4843,-1.4817,-1.4809,-1.4797,-1.4776,-1.4757,-1.473,-1.4705,-1.4689,-1.4672,-1.4646,-1.4613,-1.4619,-1.4605,-1.4602,-1.4581,-1.4542,-1.4591,-1.4591,-1.4579,-1.4489,-1.448,-1.4472,-1.4544,-1.4543,-1.4542,-1.4489,0,-1.4802,-1.4755,-1.4752,-1.4708,-1.4685,-1.4688,-1.4664,-1.4647,-1.4638,-1.4616,-1.4606,-1.458,-1.4593,-1.4584,-1.4563,-1.4551,-1.4523,-1.4555,-1.4517,-1.4515,-1.4518,-1.4463,-1.4454,-1.4405,-1.4482,-1.4481,-1.448,0,-1.4748,-1.4728,-1.4682,-1.4662,-1.4652,-1.463,-1.4605,-1.4585,-1.4564,-1.4559,-1.4541,-1.4541,-1.451,-1.4529,-1.4484,-1.4506,-1.449,-1.4481,-1.4479,-1.4473,-1.4493,-1.4451,-1.439,-1.4381,-1.447,-1.4471,-1.4471,0,-1.4715,-1.4678,-1.4644,-1.4634,-1.461,-1.4594,-1.4583,-1.4564,-1.4548,-1.4525,-1.4514,-1.4489,-1.4473,-1.4452,-1.4443,-1.4459,-1.4397,-1.4417,-1.4389,-1.4389,-1.4374,-1.4374,-1.4305,-1.437,-1.437,-1.437,-1.437,0,-1.4668,-1.4639,-1.4629,-1.4608,-1.4574,-1.457,-1.4536,-1.4526,-1.4508,-1.4483,-1.4485,-1.4462,-1.4453,-1.4427,-1.4421,-1.4382,-1.4376,-1.4369,-1.4366,-1.4366,-1.4367,-1.4353,-1.4355,-1.4368,-1.4368,-1.4369,-1.4369,0,-1.4625,-1.4618,-1.4581,-1.4561,-1.4555,-1.4531,-1.4512,-1.4491,-1.4483,-1.4451,-1.4443,-1.4429,-1.4398,-1.4388,-1.4351,-1.4346,-1.43,-1.4303,-1.4306,-1.4305,-1.4277,-1.4278,-1.4194,-1.4181,-1.4257,-1.4257,-1.4256,0,-1.4595,-1.4572,-1.4549,-1.4533,-1.4521,-1.4496,-1.4479,-1.4473,-1.4455,-1.4428,-1.4409,-1.4379,-1.4354,-1.4304,-1.4289,-1.426,-1.4259,-1.4232,-1.4255,-1.4254,-1.4254,-1.4253,-1.4249,-1.4227,-1.4226,-1.4225,-1.4225,0,-1.4539,-1.4536,-1.4512,-1.4486,-1.4466,-1.4445,-1.4425,-1.4411,-1.4402,-1.4381,-1.435,-1.433,-1.4292,-1.426,-1.423,-1.4216,-1.4217,-1.4218,-1.4209,-1.4207,-1.4208,-1.4203,-1.429,-1.4219,-1.422,-1.422,-1.422,-1.4221,-1.4498,-1.4477,-1.4457,-1.4429,-1.4413,-1.4394,-1.4371,-1.4359,-1.4334,-1.4302,-1.43,-1.4265,-1.4242,-1.4201,-1.4186,-1.4156,-1.4164,-1.4152,-1.4149,-1.4145,-1.414,-1.4216,-1.4151,-1.4152,-1.4152,-1.4152,-1.4152,0,-1.4439,-1.4426,-1.4401,-1.4372,-1.4349,-1.4355,-1.4332,-1.4312,-1.4281,-1.426,-1.4235,-1.4197,-1.4166,-1.4148,-1.4116,-1.4095,-1.4095,-1.4087,-1.4086,-1.4082,-1.4138,-1.4147,-1.4087,-1.4087,-1.4087,-1.4087,-1.4087,-1.4087,-1.4406,-1.4368,-1.4362,-1.4316,-1.4302,-1.4269,-1.4254,-1.4235,-1.4218,-1.4175,-1.4149,-1.4138,-1.4117,-1.4083,-1.4053,-1.4048,-1.4034,-1.4025,-1.402,-1.4072,-1.4079,-1.4085,-1.4093,-1.4023,-1.4023,-1.3966,-1.3965,-1.3965]},{"header":{"parameterUnit":"m.s-1","parameterCategory":1,"la1":30.2991,"la2":30.254,"lo1":-89.0895,"lo2":-89.0444,"dy":0.0017,"dx":0.0017,"nx":28,"ny":28,"refTime":"2023-11-09T09:00:00:Z","depth":0,"parameterNumber":3,"parameterNumberName":"V-component_of_WINDS"},"data":[0,0,0,0,0,0,0,0,0,0,0,0,0,0,0,0,0,0,0,0,0,0,0,0,0,0,0,0,0,0,0,0,0,0,0,0,0,0,0,0,0,0,0,0,0,0,0,0,0,0,0,0,0,0,0,0,0,0,0.5432,0.5435,0,0.571,0.5713,0.5716,0.5856,0.5856,0.5856,0.5856,0.6152,0.6159,0.6167,0,0,0,0,0,0,0,0,0,0,0,0,0,0.5036,0.5043,0.5432,0.5435,0.5438,0.5709,0.5713,0.5717,0.5856,0.5856,0.5856,0.5856,0.6149,0.6158,0.6168,0,0,0,0,0,0,0,0,0,0,0,0,0,0.5251,0.5045,0.5431,0.554,0.5553,0.5708,0.5713,0.5718,0.5856,0.5856,0.5856,0.5856,0.6146,0.6158,0.6169,0.6241,0,0,0.6205,0.621,0,0,0,0,0,0,0,0,0.5238,0.5265,0.5521,0.5533,0.5547,0.5748,0.5682,0.5894,0.5856,0.5741,0.5856,0.5856,0.6018,0.604,0.6093,0.6255,0.6267,0.6206,0.6213,0.6218,0.6222,0,0,0,0,0,0,0,0.5223,0.5254,0.5542,0.5524,0.5541,0.558,0.5611,0.5723,0.5876,0.5751,0.5762,0.5792,0.6026,0.6081,0.6101,0.6272,0.6206,0.6216,0.6224,0.6228,0.6514,0.6515,0,0,0,0,0,0,0.5189,0.5241,0.5533,0.555,0.5389,0.5587,0.5621,0.5684,0.5875,0.5904,0.5792,0.5797,0.6061,0.6087,0.6112,0.6212,0.6218,0.6229,0.6236,0.6514,0.6514,0.6515,0,0,0,0,0,0,0.518,0.5214,0.5522,0.5399,0.5441,0.5594,0.5663,0.5689,0.5745,0.5906,0.5935,0.5819,0.6062,0.6095,0.6209,0.6224,0.6235,0.6245,0.6513,0.6514,0.6515,0.641,0,0,0,0,0,0,0.5168,0.5209,0.5234,0.5398,0.5447,0.5609,0.5664,0.5694,0.5763,0.5773,0.594,0.5967,0.6065,0.619,0.622,0.6241,0.6255,0.6512,0.6513,0.6514,0.6413,0.6407,0.6403,0,0,0,0,0,0.5153,0.5195,0.5235,0.5269,0.548,0.5609,0.5638,0.5745,0.5763,0.5793,0.5898,0.5962,0.6217,0.62,0.6236,0.626,0.6512,0.6513,0.6514,0.6415,0.6408,0.6403,0,0,0,0,0,0,0.5032,0.5218,0.5264,0.5359,0.5467,0.5632,0.5672,0.5734,0.5841,0.5847,0.598,0.6017,0.6119,0.6201,0.6179,0.6343,0.6372,0.638,0.6284,0.6279,0.6274,0.6253,0.6264,0,0,0,0,0,0.5015,0.51,0.5261,0.533,0.5381,0.5517,0.5577,0.5651,0.5769,0.5817,0.593,0.6046,0.6154,0.6221,0.6328,0.6426,0.6468,0.6461,0.6456,0.6451,0.6456,0.652,0.652,0.6519,0.6519,0.6519,0,0,0.4984,0.5096,0.5142,0.5308,0.54,0.549,0.5554,0.5645,0.5715,0.5832,0.5945,0.6033,0.6173,0.6279,0.6332,0.6351,0.6466,0.6452,0.6447,0.6456,0.6521,0.6521,0.6521,0.652,0.6519,0.6519,0,0,0.4972,0.5064,0.5133,0.5224,0.5362,0.5453,0.547,0.5627,0.5689,0.5804,0.5895,0.5983,0.6163,0.626,0.6333,0.6364,0.6429,0.6396,0.6368,0.6429,0.6429,0.643,0.6444,0.6448,0.6401,0.6401,0.64,0,0.4916,0.505,0.5161,0.5248,0.5321,0.5429,0.5504,0.5589,0.5756,0.5806,0.5824,0.6056,0.6157,0.6291,0.6298,0.6353,0.6381,0.6377,0.6419,0.6421,0.6424,0.6439,0.6444,0.6396,0.6396,0.6397,0.6397,0,0.4977,0.5069,0.511,0.5266,0.5344,0.5424,0.5552,0.5619,0.5688,0.5778,0.5899,0.6024,0.6161,0.6198,0.6267,0.6344,0.6352,0.6392,0.6425,0.6417,0.6434,0.6441,0.6389,0.6391,0.6392,0.6393,0,0,0.4893,0.5112,0.5125,0.52,0.5362,0.5439,0.5528,0.5658,0.5715,0.5828,0.5909,0.6062,0.6102,0.6185,0.6266,0.6319,0.6341,0.6355,0.6361,0.635,0.6439,0.6408,0.6412,0.6385,0.6387,0.6388,0.6428,0,0.4906,0.5063,0.5169,0.5288,0.5378,0.5485,0.5563,0.5674,0.5763,0.5857,0.5958,0.6064,0.6107,0.6159,0.6216,0.6325,0.6361,0.6324,0.6467,0.647,0.6429,0.6421,0.6387,0.6419,0.6435,0.6437,0.6437,0,0.494,0.5048,0.5175,0.5332,0.5375,0.5442,0.5573,0.566,0.5791,0.5853,0.5947,0.603,0.6135,0.6158,0.6307,0.628,0.6346,0.6409,0.6413,0.6432,0.6453,0.6441,0.6431,0.6436,0.6448,0.6448,0.6447,0,0.487,0.5048,0.5148,0.5208,0.5393,0.5439,0.5519,0.5651,0.5724,0.5841,0.5892,0.602,0.6091,0.6191,0.631,0.6315,0.6449,0.6481,0.6508,0.6505,0.6531,0.6528,0.6533,0.657,0.657,0.657,0.6569,0,0.4873,0.4947,0.5119,0.518,0.5269,0.5393,0.5479,0.5569,0.5686,0.5772,0.5874,0.5953,0.6104,0.6203,0.6298,0.641,0.6441,0.6497,0.6522,0.6489,0.6482,0.6534,0.6536,0.6571,0.6571,0.657,0.657,0,0.4808,0.4926,0.5042,0.5209,0.5253,0.5311,0.5457,0.5524,0.5619,0.5727,0.576,0.5911,0.6035,0.6163,0.633,0.6394,0.6504,0.6537,0.6458,0.6472,0.6492,0.6489,0.6533,0.6547,0.6571,0.657,0.657,0,0.4803,0.4862,0.5035,0.5098,0.5175,0.5275,0.5351,0.5477,0.5553,0.571,0.576,0.589,0.6001,0.6195,0.6323,0.6454,0.6492,0.6498,0.6512,0.6479,0.6496,0.6491,0.6501,0.6493,0.6492,0.6491,0.6491,0,0.4782,0.4838,0.4941,0.5065,0.5152,0.5257,0.5367,0.5414,0.5564,0.5645,0.5771,0.5856,0.6028,0.6158,0.6305,0.6395,0.647,0.6485,0.6499,0.6467,0.642,0.6449,0.6446,0.6484,0.6485,0.6485,0.6485,0.6486,0.4749,0.4809,0.494,0.5053,0.5149,0.525,0.5322,0.5427,0.5533,0.5679,0.575,0.5877,0.6015,0.6219,0.6307,0.6413,0.6434,0.6453,0.6458,0.6461,0.6455,0.6401,0.644,0.644,0.6441,0.6441,0.6441,0,0.4736,0.4826,0.4929,0.5078,0.5169,0.5228,0.5355,0.5428,0.5537,0.5657,0.5764,0.5912,0.604,0.618,0.6318,0.6376,0.6414,0.6408,0.6406,0.6427,0.6426,0.6401,0.6375,0.6375,0.6375,0.6375,0.6375,0.6375,0.4739,0.4844,0.4917,0.5074,0.5166,0.5288,0.5355,0.5452,0.5549,0.5707,0.5813,0.5902,0.6033,0.6182,0.6305,0.6344,0.6391,0.6376,0.6424,0.6421,0.6426,0.6431,0.6409,0.6384,0.6384,0.6417,0.6417,0.6418]}]]